Weather in Galakhovo

Russia / Saratov Oblast     51°51′14″N   44°25′58″E
temp.,
°C
wind,
m/s
gust,
m/s
humid.,
%
clouds,
%
prec.,
mm/h
press.,
hPa
HPBL,
m
28 october, thu
thu2801:00+2sw614460 0.0 1021333
04:00+1wsw5125289 0.0 1021279
07:00+2wsw486091 0.0 1020218
10:00+3wsw4866100 0.0 1020247
13:00+7wsw6865100 0.0 1019557
16:00+8wsw5965100 0.0 1017797
19:00+6sw51175100 0.0 1017412
22:00+6wsw51087100 0.6 1017934
29 october, fri
fri2901:00+6w4892100 0.6 1017451
04:00+6nw4896100 0.6 1018439
07:00+7n4893100 0.0 1021475
10:00+7n4787100 0.1 1024508
13:00+9ne456165 0.0 10251081
16:00+10nne335314 0.0 10271150
19:00+6nne226714 0.0 102910
22:00+5wnw007129 0.0 103010
30 october, sat
sat3001:00+4wsw227650 0.0 103117
04:00+4wsw348597 0.0 103170
07:00+3wsw36870 0.0 1031113
10:00+6w48740 0.0 1032261
13:00+10w57585 0.0 1032557
16:00+11w586124 0.0 1031587
19:00+7w49773 0.0 1032166
22:00+6w38830 0.0 1032142
31 october, sun
sun3101:00+6w47860 0.0 1032122
04:00+5w36880 0.0 1033105
07:00+4w35890 0.0 103371
10:00+7w35740 0.0 1033149
13:00+12w34562 0.0 1032411
16:00+13w34555 0.0 1031471
19:00+8w33710 0.0 103125
22:00+7wsw22754 0.0 103213
1 november, mon
mon101:00+6wsw22781 0.0 103116
04:00+5sw33815 0.0 103124
07:00+5sw22830 0.0 103013
10:00+8sw23690 0.0 1030113
13:00+12ssw34520 0.0 1029456
16:00+13ssw23490 0.0 1027560
19:00+8s22610 0.0 102711
22:00+7s22550 0.0 102713